• In Hungary
  • List of Countries
  • For 7 days
  • Water Temperature
  • Satellite Maps
  • Weather Map
  • News
  • Weather Widgets
  • user-avatar
    Login

    Hourly Weather Barra

    Today, 21 August, Monday

    Time Temperature Precipitation Wind Pressure Humidity
    00:00 +16°C° 0 mm 3 mps 752 mmHg 82%
    01:00 +16°C° 0 mm 3 mps 752 mmHg 84%
    02:00 +16°C° 0 mm 3 mps 751 mmHg 83%
    03:00 +16°C° 0 mm 3 mps 751 mmHg 83%
    04:00 +16°C° 0 mm 3 mps 751 mmHg 86%
    05:00 +16°C° 0 mm 3 mps 751 mmHg 85%
    06:00 +16°C° 0 mm 3 mps 751 mmHg 84%
    07:00 +16°C° 0 mm 3 mps 752 mmHg 83%
    08:00 +18°C° 0 mm 3 mps 752 mmHg 72%
    09:00 +21°C° 0 mm 3 mps 752 mmHg 61%
    10:00 +24°C° 0 mm 3 mps 752 mmHg 50%
    11:00 +25°C° 0 mm 3 mps 752 mmHg 48%
    12:00 +26°C° 0 mm 3 mps 752 mmHg 46%
    13:00 +27°C° 0 mm 3 mps 751 mmHg 43%
    14:00 +26°C° 0 mm 3 mps 751 mmHg 45%
    15:00 +26°C° 0 mm 3 mps 751 mmHg 47%
    16:00 +25°C° 0 mm 3 mps 750 mmHg 49%
    17:00 +23°C° 0 mm 2 mps 751 mmHg 58%
    18:00 +20°C° 0 mm 2 mps 751 mmHg 67%
    19:00 +19°C° 0 mm 1 mps 751 mmHg 77%
    20:00 +18°C° 0 mm 1 mps 752 mmHg 80%
    21:00 +18°C° 0 mm 1 mps 752 mmHg 84%
    22:00 +16°C° 0 mm 1 mps 752 mmHg 87%
    23:00 +16°C° 0 mm 1 mps 752 mmHg 89%

    Tomorrow, 22 August, Tuesday

    Time Temperature Precipitation Wind Pressure Humidity
    00:00 +16°C° 0 mm 1 mps 752 mmHg 90%
    01:00 +16°C° 0 mm 1 mps 752 mmHg 92%
    02:00 +16°C° 0 mm 1 mps 752 mmHg 93%
    03:00 +16°C° 0 mm 1 mps 752 mmHg 94%
    04:00 +16°C° 0 mm 1 mps 751 mmHg 95%
    05:00 +16°C° 0 mm 1 mps 752 mmHg 95%
    06:00 +16°C° 0 mm 1 mps 752 mmHg 95%
    07:00 +16°C° 0 mm 1 mps 752 mmHg 95%
    08:00 +20°C° 0 mm 1 mps 752 mmHg 83%
    09:00 +23°C° 0 mm 1 mps 753 mmHg 71%
    10:00 +26°C° 0 mm 1 mps 753 mmHg 58%
    11:00 +27°C° 0 mm 2 mps 752 mmHg 55%
    12:00 +28°C° 0 mm 2 mps 751 mmHg 51%
    13:00 +29°C° 0 mm 2 mps 751 mmHg 48%
    14:00 +28°C° 0 mm 2 mps 751 mmHg 49%
    15:00 +28°C° 0 mm 2 mps 750 mmHg 51%
    16:00 +27°C° 0 mm 2 mps 750 mmHg 53%
    17:00 +25°C° 0 mm 2 mps 750 mmHg 63%
    18:00 +23°C° 0 mm 2 mps 751 mmHg 73%
    19:00 +20°C° 0 mm 2 mps 751 mmHg 82%
    20:00 +19°C° 0 mm 2 mps 752 mmHg 85%
    21:00 +19°C° 0 mm 2 mps 752 mmHg 88%
    22:00 +18°C° 0 mm 2 mps 753 mmHg 92%
    23:00 +18°C° 0 mm 2 mps 753 mmHg 92%

    Day after tomorrow, 23 August, Wednesday

    Time Temperature Precipitation Wind Pressure Humidity
    00:00 +18°C° 0 mm 2 mps 752 mmHg 92%
    01:00 +19°C° 0 mm 2 mps 752 mmHg 92%
    02:00 +19°C° 0 mm 2 mps 752 mmHg 92%
    03:00 +19°C° 0 mm 2 mps 752 mmHg 93%
    04:00 +19°C° 0 mm 2 mps 752 mmHg 94%
    05:00 +19°C° 0 mm 2 mps 752 mmHg 94%
    06:00 +19°C° 0 mm 2 mps 752 mmHg 95%
    07:00 +19°C° 0 mm 2 mps 753 mmHg 95%
    08:00 +21°C° 0 mm 2 mps 753 mmHg 85%
    09:00 +24°C° 0 mm 2 mps 753 mmHg 74%
    10:00 +26°C° 0 mm 2 mps 753 mmHg 63%
    11:00 +27°C° 0 mm 2 mps 752 mmHg 58%
    12:00 +28°C° 0 mm 2 mps 752 mmHg 53%
    13:00 +29°C° 0 mm 2 mps 751 mmHg 48%
    14:00 +28°C° 0 mm 2 mps 751 mmHg 49%
    15:00 +28°C° 0 mm 2 mps 750 mmHg 50%
    16:00 +28°C° 0 mm 3 mps 750 mmHg 51%
    17:00 +25°C° 0 mm 2 mps 750 mmHg 61%
    18:00 +23°C° 0 mm 2 mps 751 mmHg 71%
    19:00 +20°C° 0 mm 2 mps 752 mmHg 82%
    20:00 +19°C° 0 mm 2 mps 752 mmHg 86%
    21:00 +19°C° 0 mm 2 mps 752 mmHg 89%
    22:00 +19°C° 0 mm 1 mps 752 mmHg 93%
    23:00 +18°C° 0 mm 2 mps 752 mmHg 94%

    24 August, Thursday

    Time Temperature Precipitation Wind Pressure Humidity
    00:00 +18°C° 0 mm 2 mps 751 mmHg 95%
    01:00 +18°C° 0 mm 2 mps 751 mmHg 96%
    02:00 +19°C° 0 mm 1 mps 751 mmHg 96%
    03:00 +19°C° 0 mm 1 mps 750 mmHg 97%
    04:00 +19°C° 0 mm 1 mps 750 mmHg 97%
    05:00 +19°C° 0 mm 1 mps 750 mmHg 97%
    06:00 +19°C° 0 mm 1 mps 751 mmHg 97%
    07:00 +19°C° 0 mm 1 mps 751 mmHg 97%
    08:00 +22°C° 0 mm 1 mps 751 mmHg 83%
    09:00 +24°C° 0 mm 1 mps 752 mmHg 70%
    10:00 +27°C° 0 mm 2 mps 752 mmHg 57%
    11:00 +28°C° 0 mm 2 mps 751 mmHg 52%
    12:00 +29°C° 0 mm 2 mps 750 mmHg 48%
    13:00 +30°C° 0 mm 2 mps 750 mmHg 44%
    14:00 +29°C° 0 mm 2 mps 749 mmHg 46%
    15:00 +29°C° 0 mm 2 mps 749 mmHg 47%
    16:00 +29°C° 0 mm 2 mps 748 mmHg 49%
    17:00 +26°C° 0 mm 2 mps 749 mmHg 59%
    18:00 +24°C° 0 mm 2 mps 749 mmHg 70%
    19:00 +20°C° 0 mm 2 mps 749 mmHg 81%
    20:00 +20°C° 0 mm 2 mps 750 mmHg 84%
    21:00 +20°C° 0 mm 1 mps 750 mmHg 88%
    22:00 +20°C° 0 mm 1 mps 750 mmHg 92%
    23:00 +19°C° 0 mm 1 mps 750 mmHg 92%

    25 August, Friday

    Time Temperature Precipitation Wind Pressure Humidity
    00:00 +19°C° 0 mm 1 mps 750 mmHg 93%
    01:00 +19°C° 0 mm 1 mps 750 mmHg 93%
    02:00 +19°C° 0 mm 1 mps 749 mmHg 93%
    03:00 +19°C° 0 mm 1 mps 749 mmHg 93%
    04:00 +18°C° 0 mm 1 mps 749 mmHg 92%
    05:00 +17°C° 0 mm 2 mps 750 mmHg 91%
    06:00 +18°C° 0 mm 2 mps 750 mmHg 89%
    07:00 +18°C° 0 mm 2 mps 751 mmHg 87%
    08:00 +21°C° 0 mm 2 mps 751 mmHg 74%
    09:00 +25°C° 0 mm 2 mps 751 mmHg 61%
    10:00 +28°C° 0 mm 2 mps 751 mmHg 48%
    11:00 +29°C° 0 mm 2 mps 750 mmHg 46%
    12:00 +29°C° 0 mm 3 mps 750 mmHg 45%
    13:00 +30°C° 0 mm 3 mps 749 mmHg 43%
    14:00 +29°C° 0 mm 3 mps 749 mmHg 46%
    15:00 +29°C° 0 mm 3 mps 748 mmHg 49%
    16:00 +28°C° 0 mm 3 mps 748 mmHg 53%
    17:00 +26°C° 0 mm 3 mps 749 mmHg 64%
    18:00 +24°C° 0 mm 3 mps 749 mmHg 75%
    19:00 +21°C° 0 mm 3 mps 750 mmHg 86%
    20:00 +20°C° 0 mm 3 mps 750 mmHg 89%
    21:00 +20°C° 0 mm 3 mps 751 mmHg 91%
    22:00 +20°C° 0 mm 3 mps 751 mmHg 94%
    23:00 +20°C° 0.1 mm 3 mps 751 mmHg 94%

    26 August, Saturday

    Time Temperature Precipitation Wind Pressure Humidity
    00:00 +20°C° 0.1 mm 3 mps 750 mmHg 93%
    01:00 +21°C° 0.1 mm 3 mps 750 mmHg 93%
    02:00 +20°C° 0.2 mm 3 mps 750 mmHg 94%
    03:00 +20°C° 0.2 mm 3 mps 750 mmHg 95%
    04:00 +20°C° 0.2 mm 3 mps 750 mmHg 96%
    05:00 +20°C° 0.3 mm 3 mps 750 mmHg 96%
    06:00 +20°C° 0.3 mm 3 mps 751 mmHg 96%
    07:00 +20°C° 0.3 mm 3 mps 751 mmHg 95%
    08:00 +21°C° 0.3 mm 3 mps 751 mmHg 89%
    09:00 +22°C° 0.3 mm 4 mps 752 mmHg 83%
    10:00 +23°C° 0.3 mm 4 mps 752 mmHg 78%
    11:00 +25°C° 0.2 mm 4 mps 751 mmHg 75%
    12:00 +25°C° 0.2 mm 5 mps 751 mmHg 71%
    13:00 +26°C° 0.2 mm 5 mps 750 mmHg 68%
    14:00 +26°C° 0.2 mm 5 mps 750 mmHg 69%
    15:00 +25°C° 0.2 mm 5 mps 750 mmHg 69%
    16:00 +25°C° 0.2 mm 5 mps 750 mmHg 69%
    17:00 +23°C° 0.1 mm 4 mps 750 mmHg 76%
    18:00 +21°C° 0.1 mm 4 mps 751 mmHg 84%
    19:00 +20°C° 0.1 mm 3 mps 751 mmHg 91%
    20:00 +20°C° 0 mm 3 mps 752 mmHg 92%
    21:00 +19°C° 0 mm 3 mps 752 mmHg 94%
    22:00 +19°C° 0 mm 3 mps 752 mmHg 95%
    23:00 +19°C° 0 mm 3 mps 752 mmHg 95%
    Show more